Location: Niles Junction
(37.5763°N, 121.9714°W)
Time: 03:54:28
(UTC+00:00)

Meteor 2-10 Rocket - Pass Details

Date: 29 October 2020
Orbit: 733 x 885 km, 81.2° (Epoch: 23 November)

Event Time Altitude Azimuth Distance (km) Brightness Sun altitude
Rises 13:10:58 0° 356° (N) 3,171 6.6 -16.3°
Reaches altitude 10° 13:13:20 10° 1° (N) 2,250 5.9 -15.8°
Maximum altitude 13:18:15 53° 78° (ENE) 916 4.3 -14.8°
Drops below altitude 10° 13:23:16 10° 156° (SSE) 2,294 6.4 -13.9°
Sets 13:25:42 0° 161° (SSE) 3,237 7.1 -13.4°
